Showing default

ORBCOMM FM 30, 25980

Orbit data source: Space-Track

ORBCOMM FM 30, 25980 is a payload satellite owned by Orbcomm (US) in LEO that was launched on Sat, 04 Dec 1999 UTC via a PEGASUS XL/HAPS launch vehicle from the Air Force Eastern Test Range (AFETR). Payload-class satellites include a variety of spacecraft equipped with specific instruments for various scientific and technological missions. These include communications satellites like Starlink; space stations such as the ISS; scientific satellites like the Hubble; Earth observation satellites from companies like Planet Labs, Umbra, and HawkEye 360; GPS; miniature CubeSats for education and research; and military/defense satellites.

Loading next visibility...
Identifier
25980, 1999-065A
Orbit
LEO
Country
Flag of USUS / ORB
Related business
Manufacturer
OSC-Germantown
Mission
Non-operational Commercial Communications
Bus & Motor
MICROSTAR, Unknown motor
Mass
44 kg wet, 44 kg dry
Launch date (UTC)
1999-12-04 (27 years ago)
Launch vehicle
PEGASUS XL/HAPS
Launch site
Air Force Eastern Test Range (AFETR)
Object type
Payload
Rocket body
Debris
Shape & HBR
Cyl + 2 Pan, 4.2 m
Radar Cross Section
1.484 m², Medium (>0.1 m² and < 1m²)

Expand to show TLE details & history
Last TLE update: 2 days ago

TLE from 2 days ago
0 ORBCOMM FM 30
1 25980U 99065A   26171.34707409  .00000453  00000-0  19456-3 0  9994
2 25980  45.0292 145.8259 0005784  32.1653 327.9547 14.38155013387439
Epoch: 2026-06-20T08:19Z
TLE epoch observation values (Epoch: 2026-06-20T08:19:47.201Z)
Latitude
-0.00006°
Longitude
112.31616°
Altitude
761.102 km
Speed
7.477 km/s
True Right ascension
09h 43m 18s
True Declination
0° 00' 00"
Sunlit
Object was in daylight at epoch
Visualization orbit readout
Latitude
Unknown
Longitude
Unknown
Altitude
Unknown
Speed
Unknown
Apparent Right ascension
Unknown
Apparent Declination
Unknown
Sunlit
N/A
Visualization observer readout
Local Sidereal Time
23:07:55
Azimuth
Unknown
Elevation
Unknown
Doppler factor
Unknown
Orbital elements
Apogee altitude
770.274 km
Perigee altitude
762.01 km
Semi-major axis
7,144.279 km
Eccentricity
0.00058
Inclination
45.0292°
RAAN
145.8259°
Arg. of periapsis
32.1653°
True anomaly
327.91951°
Mean anomaly
327.9547°
Eccentric anomaly
327.93711°
Mean motion
3.59423 °/min
Orbital period
100.16 mins
BSTAR
0.00019456
Loading maneuver chart data...
Computing Atmospheric mass density...

Documentation

Showing up to 5 results
|